User: anonymous   Login
Location: Caltech
(34.1382°N, 118.1253°W)
Time: 14:20:00
(UTC-07:00)
Language:

ALOS - Orbit

View from above orbital plane
View from above orbital plane
View from above satellite
View from above satellite

Ground track
Ground track

The orbit data is extracted from the following two-line orbital elements,

1 28931U 06002A   14296.78981838  .00001625  00000-0  33757-3 0   842
2 28931 097.9675 350.2732 0002271 116.6151 019.7164 14.61381562466105
Epoch (UTC): 23 October 2014 18:57:20
Eccentricity: 0.0002271
inclination: 97.9675°
perigee height: 687 km
apogee height: 690 km
right ascension of ascending node: 350.2732°
argument of perigee: 116.6151°
revolutions per day: 14.61381562
mean anomaly at epoch: 19.7164°
orbit number at epoch: 46610

The dashed part of the orbit path shows where the satellite is in the earth's shadow,  

DLR